Weather History for Sanford, NC

Change the Weather History Date:

Monday, March 3, 2014

  Actual Average (KRDU) Record (KRDU)
Temperature  
Mean Temperature 42 °F 48 °F  
Max Temperature 59 °F 59 °F 87 °F (1976)
Min Temperature 24 °F 37 °F 12 °F (1980)
Degree Days  
Heating Degree Days 22 17  
Month to date heating degree days 52  
Since 1 July heating degree days 2624  
Cooling Degree Days 0 0  
Month to date cooling degree days 0  
Year to date cooling degree days 1  
Moisture  
Dew Point 37 °F    
Average Humidity 84    
Maximum Humidity 96    
Minimum Humidity 57    
Precipitation  
Precipitation 0.29 in 0.13 in 1.66 in (1952)
Month to date precipitation 0.39  
Year to date precipitation 7.12  
Snow  
Snow 0.00 in 0.00 in 2.90 in (1912)
Month to date snowfall 0.1  
Since 1 July snowfall 5.6  
Snow Depth -    
Sea Level Pressure  
Sea Level Pressure 30.01 in    
Wind  
Wind Speed 8 mph (NNE)    
Max Wind Speed 23 mph    
Max Gust Speed 30 mph    
Visibility 8 miles    
Events Rain , Snow    
T = Trace of Precipitation, MM = Missing Value Source: NWS Daily Summary

Daily Weather History Graph

Daily Weather History Graph

Search for Another Location

Airport:

Trip Planner

Search our weather history database for the weather conditions in past years. The results will help you decide how hot, cold, wet, or windy it might be!

Date:

Astronomy

Mar. 03, 2014 Rise Set
Actual Time 6:43 AM EST 6:13 PM EST
Civil Twilight 6:18 AM EST 6:39 PM EST
Nautical Twilight 5:48 AM EST 7:08 PM EST
Astronomical Twilight 5:19 AM EST 7:38 PM EST
Moon 7:57 AM EST (3/3) 9:06 PM EST (3/3)
Length of Visible Light 12h 20m
Length of Day
11h 29m
Waxing Crescent, 8% of the Moon is Illuminated
Mar 3
Waxing Crescent
Mar 8
First Quarter
Mar 16
Full
Mar 23
Last Quarter
Mar 30
New

Hourly Weather History & Observations

Time (EST) Temp. Windchill Dew Point Humidity Pressure Visibility Wind Dir Wind Speed Gust Speed Precip Events Conditions
12:15 AM 61.5 °F - 46.0 °F 57% 29.91 in 10.0 mi SSW 8.1 mph - N/A   Unknown
12:35 AM 60.6 °F - 46.0 °F 59% 29.91 in 10.0 mi SSW 6.9 mph - N/A   Unknown
12:55 AM 59.9 °F - 46.2 °F 61% 29.90 in 10.0 mi SSW 6.9 mph - N/A   Unknown
1:15 AM 59.2 °F - 46.4 °F 63% 29.89 in 10.0 mi SSW 4.6 mph - N/A   Unknown
1:35 AM 58.1 °F - 46.4 °F 65% 29.88 in 10.0 mi South 4.6 mph - N/A   Unknown
1:55 AM 58.3 °F - 46.4 °F 65% 29.88 in 10.0 mi SSW 4.6 mph - N/A   Unknown
2:15 AM 58.1 °F - 46.4 °F 65% 29.87 in 10.0 mi SSW 3.5 mph - N/A   Unknown
2:35 AM 57.2 °F - 46.2 °F 67% 29.86 in 10.0 mi SSW 3.5 mph - N/A   Unknown
2:55 AM 56.5 °F - 46.4 °F 69% 29.85 in 10.0 mi South 3.5 mph - N/A   Unknown
3:15 AM 56.5 °F - 46.0 °F 68% 29.85 in 10.0 mi South 3.5 mph - N/A   Unknown
3:35 AM 55.4 °F - 46.0 °F 71% 29.84 in 10.0 mi South 3.5 mph - N/A   Unknown
3:55 AM 55.2 °F - 45.9 °F 71% 29.84 in 10.0 mi South 3.5 mph - N/A   Unknown
4:20 AM 55.0 °F - 45.7 °F 71% 29.84 in 10.0 mi SSW 3.5 mph - N/A   Unknown
4:35 AM 55.2 °F - 46.0 °F 71% 29.84 in 10.0 mi Calm Calm - N/A   Unknown
4:55 AM 55.4 °F - 45.5 °F 69% 29.84 in 10.0 mi SSW 3.5 mph - N/A   Unknown
5:15 AM 55.2 °F - 45.5 °F 70% 29.84 in 10.0 mi Calm Calm - N/A   Unknown
5:35 AM 55.0 °F - 45.5 °F 70% 29.85 in 10.0 mi Calm Calm - N/A   Unknown
5:55 AM 54.1 °F - 45.5 °F 73% 29.85 in 10.0 mi Calm Calm - N/A   Unknown
6:15 AM 55.0 °F - 45.5 °F 70% 29.85 in 10.0 mi Calm Calm - N/A   Unknown
6:35 AM 53.4 °F - 45.5 °F 75% 29.85 in 10.0 mi Calm Calm - N/A   Unknown
6:55 AM 52.5 °F - 45.5 °F 77% 29.85 in 10.0 mi Calm Calm - N/A   Unknown
7:15 AM 49.8 °F - 45.5 °F 85% 29.86 in 10.0 mi Calm Calm - N/A   Unknown
7:35 AM 48.9 °F - 45.5 °F 88% 29.85 in 10.0 mi Calm Calm - N/A   Unknown
7:55 AM 49.5 °F - 46.4 °F 89% 29.86 in 10.0 mi Calm Calm - N/A   Unknown
8:15 AM 50.2 °F - 47.3 °F 90% 29.87 in 10.0 mi Calm Calm - N/A   Unknown
8:35 AM 52.2 °F - 48.0 °F 86% 29.87 in 10.0 mi NNE 3.5 mph - N/A   Unknown
9:00 AM 52.9 °F - 47.7 °F 82% 29.87 in 10.0 mi NNE 4.6 mph - N/A   Unknown
9:15 AM 53.6 °F - 47.3 °F 79% 29.88 in 10.0 mi North 5.8 mph - N/A   Unknown
9:35 AM 50.4 °F - 43.7 °F 78% 29.93 in 7.0 mi North 19.6 mph 23.0 mph 0.01 in Rain Light Rain
9:55 AM 45.7 °F 39.5 °F 43.0 °F 90% 29.91 in 3.0 mi NNE 13.8 mph 18.4 mph 0.07 in Rain Rain
10:15 AM 45.1 °F 39.1 °F 43.2 °F 93% 29.93 in 4.0 mi NNE 12.7 mph 17.3 mph 0.01 in Rain Rain
10:35 AM 44.2 °F 38.8 °F 42.6 °F 94% 29.93 in 2.0 mi NNE 10.4 mph 18.4 mph 0.06 in Rain Heavy Rain
10:55 AM 43.3 °F 38.6 °F 41.9 °F 95% 29.93 in 1.8 mi NNE 8.1 mph - 0.10 in Rain Rain
11:15 AM 43.0 °F 37.2 °F 41.7 °F 95% 29.96 in 2.0 mi NNE 10.4 mph - 0.02 in Rain Light Rain
11:35 AM 42.4 °F 35.3 °F 41.0 °F 95% 29.96 in 3.0 mi NNE 13.8 mph 18.4 mph 0.04 in Rain Rain
11:55 AM 41.2 °F 34.1 °F 39.2 °F 93% 29.97 in 5.0 mi NNE 12.7 mph - 0.05 in Rain Rain
12:15 PM 39.4 °F 30.1 °F 37.2 °F 92% 29.97 in 7.0 mi NNE 18.4 mph 26.5 mph 0.02 in Rain Rain
12:35 PM 38.3 °F 29.3 °F 36.1 °F 92% 29.98 in 10.0 mi NE 16.1 mph 26.5 mph 0.03 in Rain Light Rain
12:55 PM 37.8 °F 28.6 °F 35.6 °F 92% 29.98 in 4.0 mi NNE 16.1 mph 25.3 mph 0.05 in Rain Rain
1:15 PM 37.4 °F 28.9 °F 35.2 °F 92% 29.98 in 7.0 mi NE 13.8 mph 20.7 mph N/A Rain Rain
1:35 PM 36.7 °F 28.4 °F 35.1 °F 94% 29.99 in 4.0 mi NNE 12.7 mph 23.0 mph N/A Rain Rain
1:55 PM 36.0 °F 24.4 °F 34.2 °F 93% 30.00 in 7.0 mi North 23.0 mph 29.9 mph N/A Rain Rain
2:15 PM 33.8 °F 22.2 °F 32.0 °F 93% 30.02 in 5.0 mi North 20.7 mph 29.9 mph N/A   Light Drizzle
2:35 PM 33.1 °F 22.6 °F 31.8 °F 95% 30.02 in 4.0 mi NNE 16.1 mph 23.0 mph N/A   Light Drizzle
2:55 PM 32.2 °F 21.8 °F 31.1 °F 96% 30.05 in 3.0 mi NNE 15.0 mph 19.6 mph N/A   Unknown
3:15 PM 32.0 °F 22.5 °F 30.7 °F 95% 30.07 in 5.0 mi NNE 12.7 mph 23.0 mph N/A   Unknown
3:35 PM 32.0 °F 21.6 °F 30.2 °F 93% 30.07 in 10.0 mi NNE 15.0 mph 23.0 mph 0.01 in   Unknown
3:55 PM 31.8 °F 22.8 °F 29.5 °F 91% 30.08 in 7.0 mi NNE 11.5 mph 26.5 mph 0.01 in   Unknown
4:15 PM 31.6 °F 20.4 °F 30.0 °F 94% 30.08 in 3.0 mi NNE 17.3 mph 21.9 mph N/A   Unknown
4:35 PM 31.1 °F 19.7 °F 29.8 °F 95% 30.10 in 4.0 mi North 17.3 mph 21.9 mph N/A   Unknown
4:55 PM 30.7 °F 20.9 °F 28.6 °F 92% 30.11 in 5.0 mi NNE 12.7 mph 18.4 mph N/A   Unknown
5:15 PM 30.6 °F 20.7 °F 29.3 °F 95% 30.12 in 4.0 mi NNE 12.7 mph - N/A   Unknown
5:35 PM 30.2 °F 18.1 °F 28.2 °F 92% 30.12 in 5.0 mi NNE 18.4 mph 24.2 mph N/A   Unknown
5:55 PM 30.0 °F 19.5 °F 28.2 °F 93% 30.15 in 7.0 mi North 13.8 mph 24.2 mph N/A   Unknown
6:15 PM 29.7 °F 20.7 °F 27.9 °F 93% 30.15 in 10.0 mi NNE 10.4 mph 18.4 mph N/A   Unknown
6:35 PM 29.3 °F 19.6 °F 27.3 °F 92% 30.16 in 4.0 mi North 11.5 mph 19.6 mph N/A Snow Light Snow
6:55 PM 28.8 °F 19.0 °F 26.6 °F 92% 30.17 in 5.0 mi NNE 11.5 mph 16.1 mph 0.01 in Snow Light Snow
7:15 PM 28.4 °F 19.7 °F 26.6 °F 93% 30.18 in 7.0 mi NNE 9.2 mph - N/A Snow Light Snow
7:35 PM 28.0 °F 17.5 °F 26.1 °F 92% 30.19 in 3.0 mi North 12.7 mph - N/A Snow Light Snow
7:55 PM 27.9 °F 16.8 °F 24.8 °F 88% 30.21 in 10.0 mi NNE 13.8 mph 21.9 mph N/A   Unknown
8:15 PM 27.7 °F 16.6 °F 25.3 °F 91% 30.21 in 10.0 mi North 13.8 mph 18.4 mph N/A   Unknown
8:35 PM 27.1 °F 16.9 °F 24.4 °F 90% 30.23 in 10.0 mi North 11.5 mph 17.3 mph N/A   Unknown
8:55 PM 26.6 °F 16.2 °F 23.9 °F 90% 30.24 in 10.0 mi North 11.5 mph 20.7 mph N/A   Unknown
9:15 PM 26.6 °F 16.8 °F 23.9 °F 90% 30.24 in 10.0 mi North 10.4 mph - N/A   Unknown
9:35 PM 26.6 °F 16.8 °F 23.9 °F 90% 30.26 in 10.0 mi North 10.4 mph - N/A   Unknown
9:55 PM 26.1 °F 15.6 °F 22.8 °F 88% 30.27 in 10.0 mi North 11.5 mph - N/A   Unknown
10:15 PM 26.1 °F 16.8 °F 23.0 °F 88% 30.26 in 10.0 mi NNE 9.2 mph - N/A   Unknown
10:35 PM 26.1 °F 15.6 °F 23.0 °F 88% 30.29 in 10.0 mi North 11.5 mph 17.3 mph N/A   Unknown
10:55 PM 25.7 °F 15.1 °F 22.1 °F 86% 30.27 in 10.0 mi North 11.5 mph 18.4 mph N/A   Unknown
11:15 PM 25.3 °F 13.1 °F 19.9 °F 80% 30.27 in 10.0 mi NNE 15.0 mph 21.9 mph N/A   Unknown
11:35 PM 24.8 °F 14.6 °F 18.7 °F 78% 30.27 in 10.0 mi NNE 10.4 mph 24.2 mph N/A   Unknown
11:55 PM 24.4 °F 12.4 °F 17.4 °F 75% 30.28 in 10.0 mi NNE 13.8 mph 17.3 mph N/A   Unknown